Regional Weather Roundup
Issued by NWS

Home | Current Version | Previous Version | Graphics & Text | Print | Product List | Glossary On
Versions: 1 2 3 4 5 6 7 8 9 10 11 12 13 14 15 16 17 18 19 20 21 22 23 24 25 26 27 28 29 30 31 32 33 34 35 36 37 38 39 40 41 42 43 44 45 46 47 48 49 50
000
ASUS43 KBIS 251320
RWRND

NORTH DAKOTA REGIONAL WEATHER ROUNDUP
NATIONAL WEATHER SERVICE BISMARCK ND
800 AM CDT FRI JUL 25 2014

NOTE: "FAIR" INDICATES FEW OR NO CLOUDS BELOW 12,000 FEET WITH NO
SIGNIFICANT WEATHER AND/OR OBSTRUCTIONS TO VISIBILITY.


NDZ001>003-009>011-017-251400-
NORTHWEST NORTH DAKOTA

CITY           SKY/WX    TMP DP  RH WIND       PRES   REMARKS
WILLISTON      SUNNY     57  51  80 W12       29.87F
MINOT          SUNNY     63  49  60 W9        29.82R
MINOT AFB      SUNNY     60  56  85 W7        29.82R
$$

NDZ018>021-031>035-040>046-251400-
SOUTHWEST NORTH DAKOTA

CITY           SKY/WX    TMP DP  RH WIND       PRES   REMARKS
BISMARCK       MOSUNNY   69  64  84 NW9       29.82R
DICKINSON      SUNNY     56  51  84 W8        29.91R
GARRISON         N/A     61  55  81 NW9       29.84R
HETTINGER ARPT SUNNY     58  47  66 NW7       29.94R
$$

NDZ004>008-012>016-024-026-027-054-251400-
NORTHEAST NORTH DAKOTA

CITY           SKY/WX    TMP DP  RH WIND       PRES   REMARKS
GRAND FORKS    MOSUNNY   67  62  84 SW5       29.71R
GRND FRKS AFB  MOSUNNY   68  66  93 W5        29.72R
DEVILS LAKE    PTSUNNY   68  61  77 NW13      29.76R
$$

NDZ022-023-025-028>030-036>039-047>053-251400-
SOUTHEAST NORTH DAKOTA

CITY           SKY/WX    TMP DP  RH WIND       PRES   REMARKS
FARGO          MOSUNNY   68  62  81 S10       29.72S
JAMESTOWN      PTSUNNY   64  62  93 S6        29.75R
$$



USA.gov is the U.S. government's official web portal to all federal, state and local government web resources and services.